Terminal Aerodrome Forecast
Issued by NWS Green Bay, WI

Home | Current Version | Previous Version | Graphics & Text | Print | Product List | Glossary On
Versions: 1 2 3 4 5 6 7 8 9 10 11 12 13 14 15 16 17 18 19 20 21 22 23 24 25 26 27 28 29 30 31 32 33 34 35 36 37 38 39 40 41 42 43 44 45 46 47 48 49 50
000
FTUS43 KGRB 271000 AAB
TAFGRB
TAF AMD
KGRB 271048Z 2711/2806 05004KT 1/2SM -RA FG OVC002
     FM271200 03005KT 1SM -RA BR OVC004
     FM271600 35007KT 1 1/2SM -SN BKN010
     FM271900 29011G15KT 5SM -SN BKN016
     FM272100 29008KT P6SM SCT016 BKN070
     FM280000 28007KT P6SM SCT080=

USA.gov is the U.S. government's official web portal to all federal, state and local government web resources and services.